User: anonymous   Login
Location: Unspecified
(0.0000°N, 0.0000°E)
Time: 18:02:42
(UTC+00:00)
Language:

USA 110 - Orbit

View from above orbital plane
View from above orbital plane
View from above satellite
View from above satellite

Ground track
Ground track

The orbit data is extracted from the following two-line orbital elements,

1 23567U 95022A   18342.52722876 0.00000000  00000-0  00000-0 0    01
2 23567  14.4292  33.2523 0057867  96.7775 263.8995  1.00270000    01
Epoch (UTC): 08 December 2018 12:39:12
Eccentricity: 0.0057867
inclination: 14.4292°
perigee height: 35543 km
apogee height: 36031 km
right ascension of ascending node: 33.2523°
argument of perigee: 96.7775°
revolutions per day: 1.00270000
mean anomaly at epoch: 263.8995°
orbit number at epoch: 0

The dashed part of the orbit path shows where the satellite is in the earth's shadow,  

DLR